Regional Weather Roundup
Issued by NWS

Home | Current Version | Previous Version | Graphics & Text | Print | Product List | Glossary On
Versions: 1 2 3 4 5 6 7 8 9 10 11 12 13 14 15 16 17 18 19 20 21 22 23 24 25 26 27 28 29 30 31 32 33 34 35 36 37 38 39 40 41 42 43 44 45 46 47 48 49 50
000
ASUS43 KMKX 301359
RWRWI

WISCONSIN REGIONAL WEATHER ROUNDUP
NATIONAL WEATHER SERVICE MILWAUKEE/SULLIVAN WI
800 AM CST FRI JAN 30 2015

NOTE: "FAIR" INDICATES FEW OR NO CLOUDS BELOW 12,000 FEET WITH NO
SIGNIFICANT WEATHER AND/OR OBSTRUCTIONS TO VISIBILITY.

WIZ001-002-006>008-014>016-023>028-301500-
NORTHWEST WISCONSIN

CITY           SKY/WX    TMP DP  RH WIND       PRES   REMARKS
SUPERIOR ARPT  CLOUDY     2  -2  81 SW3       30.53F
ASHLAND        PTCLDY     5   1  83 SW6       30.51R WCI  -6
HAYWARD        CLOUDY    -1  -5  82 S3        30.48R
SIREN          PTCLDY     1  -2  84 CALM      30.51F
CUMBERLAND     PTCLDY     0  -4  85 CALM      30.48S
RICE LAKE      PTCLDY     1  -2  85 CALM      30.52R
CHETEK         PTCLDY     3  -1  83 CALM      30.51R
LADYSMITH      PTCLDY     4   0  83 CALM      30.48S
EAU CLAIRE     MOCLDY     7   0  73 CALM      30.52S
MENOMONIE      MOCLDY     8   1  73 N3        30.52S
NEW RICHMOND   PTCLDY     6   1  76 CALM      30.52R
OSCEOLA        PTCLDY     7   2  80 CALM      30.56R
$$

WIZ003>005-009-010-017-018-301500-
NORTH CENTRAL WISCONSIN

CITY           SKY/WX    TMP DP  RH WIND       PRES   REMARKS
MANITOWISH WTR FLURRIES   9   3  78 W5        30.40R WCI   0
ARBOR VITAE    CLOUDY    11   5  74 NW5       30.40S WCI   3
WOODRUFF       CLOUDY    11   5  74 NW5       30.40S WCI   3
RHINELANDER    CLOUDY     9   2  73 W7        30.41R WCI  -2
EAGLE RIVER    CLOUDY     9   2  72 N5        30.40R WCI   1
LAND O LAKES   CLOUDY     9   3  77 CALM      30.40R
PHILLIPS       CLOUDY     6   2  83 CALM      30.42S
TOMAHAWK       CLOUDY    10   3  75 CALM      30.43S
MEDFORD        PTCLDY     4   1  86 CALM      30.43F
MERRILL        CLOUDY    11   4  73 NW3       30.45R
$$

WIZ029-030-035-036-043>047-301500-
CENTRAL WISCONSIN

CITY           SKY/WX    TMP DP  RH WIND       PRES   REMARKS
WAUSAU         CLOUDY    10   2  69 NW3       30.45R
MOSINEE        CLEAR      7   3  85 NW5       30.47R WCI  -2
MARSHFIELD     PTCLDY     7   1  76 NW7       30.46S WCI  -5
STEVENS POINT  MOCLDY     5   0  79 CALM      30.48R
WAUPACA        CLOUDY    16   5  61 CALM      30.50R
WAUTOMA        NOT AVBL
WISC RAPIDS    MOCLDY    10   3  73 W3        30.50S
CAMP DOUGLAS   NOT AVBL
$$

WIZ011>013-019>022-031-037>040-048>050-301500-
NORTHEAST WISCONSIN

CITY           SKY/WX    TMP DP  RH WIND       PRES   REMARKS
ANTIGO         CLOUDY    10   4  77 N7        30.42R WCI  -1
SHAWANO        CLOUDY    15   5  63 CALM      30.49S
OCONTO         CLOUDY    12   3  66 CALM      30.50S
STURGEON BAY   CLOUDY    12   1  62 N8        30.51R WCI   1
GREEN BAY      CLOUDY    14   6  70 NW3       30.49S
MANITOWOC      NOT AVBL
APPLETON       MOCLDY    12   1  62 NW5       30.49R WCI   4
CLINTONVILLE   CLOUDY    16   5  62 NE5       30.49R WCI   9
OSHKOSH        CLEAR     13   3  64 NW5       30.49R WCI   5
$$

WIZ032>034-041-042-053>061-301500-
SOUTHWEST WISCONSIN

CITY           SKY/WX    TMP DP  RH WIND       PRES   REMARKS
LA CROSSE      CLOUDY    13   5  70 N3        30.54S
SPARTA         MOCLDY     9   4  80 CALM      30.52F
VIROQUA        CLOUDY    10   6  82 NW3       30.48S
BOSCOBEL       PTCLDY    15   6  67 NW3       30.55R
PRAIRIE DU CHI PTCLDY    15   8  73 NW5       30.54R WCI   7
PLATTEVILLE    CLEAR     12   7  81 N5        30.49S WCI   4
$$

WIZ056-057-062-063-064-067-068-301500-
SOUTH CENTRAL WISCONSIN

CITY           SKY/WX    TMP DP  RH WIND       PRES   REMARKS
REEDSBURG      PTCLDY    12   6  77 NW5       30.51R WCI   4
BARABOO/DELLS  PTCLDY    12   6  76 NW3       30.50R
LONE ROCK      NOT AVBL
MINERAL POINT  CLEAR     14   9  79 N5        30.47S WCI   6
MADISON        MOCLDY    15   7  70 NW5       30.50R WCI   8
MIDDLETON      CLEAR     14   7  73 NW3       30.50R
WATERTOWN      CLEAR     13   6  74 NW3       30.50R
MONROE         CLEAR     16   9  73 N5        30.48S WCI   9
JANESVILLE     CLEAR     14   7  73 NW5       30.50S WCI   6
$$

WIZ051-052-058>065-066-070>072-301500-
SOUTHEAST WISCONSIN

CITY           SKY/WX    TMP DP  RH WIND       PRES   REMARKS
MILWAUKEE      PTCLDY    18   7  62 NW6       30.50R WCI  10
WAUKESHA       CLEAR     12   3  67 NW5       30.50R WCI   4
MILWAUKEE/TIMM CLEAR     16   7  67 NW5       30.50R WCI   9
RACINE         CLEAR     17   7  64 NW6       30.51R WCI   9
BURLINGTON     CLEAR     13   4  67 CALM      30.49S
KENOSHA        CLEAR     18   8  65 NW6       30.50R WCI  10
FOND DU LAC    FLURRIES  12   2  64 NW6       30.49R WCI   3
SHEBOYGAN      CLEAR     13   7  77 NW3       30.49R
WEST BEND      CLEAR     14   5  67 NW3       30.48R
JUNEAU         FAIR      11   4  74 NW3       30.49S
$$

LSZ147-162-301500-
LAKE SUPERIOR

STATION/POSITION TIME  TEMP    WIND        PRES    WAVE
                       AIR SEA DIR/SP/G            HT/PER
                 (UTC) (F)     (DEG/KT/KT) (MB)    (FT/S)
DEVILS ISLAND    1300   13     270/  8/ 13 1034.0R
PORT WING        1300    9     200/  6/  9 1032.8S
SAXON HARBOR     1300   13        CALM     1032.2F
$$

LMZ867-665-643>646-301500-
LAKE MICHIGAN

STATION/POSITION TIME  TEMP    WIND        PRES    WAVE
                       AIR SEA DIR/SP/G            HT/PER
                 (UTC) (F)     (DEG/KT/KT) (MB)    (FT/S)
NORTHPORT PIER   1310   14     310/ 14/ 20 1031.8R
SISTER BAY       1243   12     360/ 12/ 14   N/A
KEWAUNEE LAKESHO 1300   13     360/  7/  9 1031.4R
SHEBOYGAN LAKESH 1300   18     350/ 13/ 16 1033.8R
PORT WASHINGTON  1340   18     350/  3/  5 1033.5R
MILWAUKEE LAKESH 1300   19     330/  6/  8   N/A
KENOSHA   LAKESH 1300   19     310/  9/ 12 1032.2R
$$

TC  - TEMPERATURE IN CELSIUS
VSB - VISIBILITY IN STATUTE MILES
WCI - WIND CHILL INDEX
HX  - HEAT INDEX




USA.gov is the U.S. government's official web portal to all federal, state and local government web resources and services.